User: anonymous   Login
Location: Unspecified
(0.0000°N, 0.0000°E)
Time: 03:50:21
(UTC+00:00)
Language:

Intelsat V F2 - Orbit

View from above orbital plane
View from above orbital plane
View from above satellite
View from above satellite

Ground track
Ground track

The orbit data is extracted from the following two-line orbital elements,

1 12089U 80098A   18292.81972361 -.00000106  00000-0  00000+0 0  9991
2 12089  14.7987 349.4919 0016769 259.6995  92.9857  0.98891281106048
Epoch (UTC): 19 October 2018 19:40:24
Eccentricity: 0.0016769
inclination: 14.7987°
perigee height: 36106 km
apogee height: 36249 km
right ascension of ascending node: 349.4919°
argument of perigee: 259.6995°
revolutions per day: 0.98891281
mean anomaly at epoch: 92.9857°
orbit number at epoch: 10604

The dashed part of the orbit path shows where the satellite is in the earth's shadow,  

DLR